FW4773 Weather Reports


Display with metric or nautical units.
time (UTC)temp
F
wind
direction
speed
MPH
gust
MPH
rain 1hr
in
rain 24hr
in
rain mn
in
humidity
%
barometer
mb
20260507061645 57 315 2.0 8.0 0.07 0.26 0.16 90 1012.3
20260507060041 57 354 1.0 8.0 0.13 0.26 0.16 90 1012.6
20260507054541 58 319 0.0 4.0 0.15 0.26 0.16 90 1012.7
20260507053032 59 295 1.0 6.0 0.14 0.24 0.14 90 1012.5
20260507051528 60 229 0.0 2.0 0.09 0.19 0.09 89 1012.8
20260507050033 61 104 0.0 2.0 0.02 0.12 0.02 85 1012.2
20260507044523 63 307 2.0 6.0 0.01 0.11 0.01 81 1012.8
20260507043013 64 224 0.0 2.0 0.00 0.10 0.00 79 1012.5
20260507041523 64 21 1.0 3.0 0.00 0.10 0.00 79 1012.3
20260507040006 64 8 2.0 10.0 0.00 0.10 0.10 79 1012.0
20260507034504 65 46 2.0 14.0 0.00 0.10 0.10 83 1012.2
20260507033002 65 17 0.0 2.0 0.00 0.10 0.10 87 1011.9
20260507031600 65 15 0.0 2.0 0.00 0.10 0.10 87 1011.7
20260507030100 65 340 0.0 1.0 0.00 0.10 0.10 88 1011.7
20260507024616 65 2 1.0 4.0 0.00 0.10 0.10 89 1011.5
20260507023054 65 207 0.0 0.0 0.00 0.10 0.10 89 1011.4
20260507021553 65 207 0.0 0.0 0.00 0.10 0.10 89 1011.2
20260507020106 65 207 0.0 1.0 0.00 0.10 0.10 88 1011.3
20260507014602 65 207 0.0 1.0 0.00 0.10 0.10 88 1011.2
20260507013050 65 207 0.0 1.0 0.00 0.10 0.10 88 1011.8
20260507011545 65 202 0.0 0.0 0.00 0.10 0.10 88 1011.9
20260507010146 65 202 0.0 0.0 0.00 0.10 0.10 88 1011.7
20260507004544 66 202 0.0 0.0 0.00 0.10 0.10 87 1011.3
20260507003040 66 202 0.0 0.0 0.00 0.10 0.10 85 1011.3
20260507001538 67 202 0.0 0.0 0.00 0.10 0.10 84 1011.3
20260507000036 67 202 0.0 0.0 0.00 0.10 0.10 82 1011.3
20260506234537 68 202 0.0 0.0 0.00 0.10 0.10 81 1011.1
20260506233032 68 202 0.0 1.0 0.00 0.10 0.10 80 1011.0
20260506231543 69 221 0.0 1.0 0.00 0.10 0.10 80 1010.6
20260506230034 69 201 0.0 2.0 0.00 0.10 0.10 79 1011.0
20260506224528 69 183 2.0 6.0 0.00 0.10 0.10 78 1010.5
20260506223040 69 205 2.0 9.0 0.00 0.10 0.10 78 1010.7
20260506221521 69 216 1.0 6.0 0.00 0.10 0.10 78 1010.7
20260506220024 69 232 2.0 7.0 0.00 0.10 0.10 77 1010.7
20260506214519 70 212 3.0 9.0 0.00 0.10 0.10 77 1010.8
20260506213016 70 197 3.0 9.0 0.00 0.10 0.10 76 1010.3
20260506211516 70 218 1.0 10.0 0.00 0.10 0.10 78 1010.4
20260506210016 70 190 5.0 7.0 0.00 0.10 0.10 77 1010.1
20260506204511 69 212 4.0 8.0 0.00 0.10 0.10 77 1010.2
20260506203009 69 222 3.0 8.0 0.00 0.10 0.10 78 1010.2
20260506201507 69 269 5.0 9.0 0.00 0.10 0.10 78 1010.4
20260506200006 69 215 2.0 6.0 0.00 0.10 0.10 78 1010.3
20260506194501 69 205 4.0 14.0 0.00 0.10 0.10 78 1010.2
20260506193101 69 249 3.0 9.0 0.00 0.10 0.10 79 1010.5
20260506191556 68 231 4.0 10.0 0.00 0.10 0.10 79 1010.6
20260506190054 68 224 5.0 10.0 0.00 0.10 0.10 78 1010.7
20260506184601 68 200 5.0 13.0 0.00 0.10 0.10 78 1010.8
20260506183058 68 197 4.0 12.0 0.00 0.10 0.10 78 1011.0
20260506181542 68 197 5.0 10.0 0.00 0.10 0.10 79 1011.2
20260506180041 67 204 6.0 11.0 0.00 0.10 0.10 80 1011.3
20260506174541 66 217 4.0 9.0 0.00 0.10 0.10 81 1011.4
20260506173034 65 237 4.0 14.0 0.00 0.10 0.10 82 1011.4
20260506171533 65 171 6.0 17.0 0.00 0.10 0.10 82 1011.6
20260506170033 65 244 7.0 12.0 0.00 0.10 0.10 84 1011.7
20260506164528 64 213 5.0 11.0 0.00 0.10 0.10 85 1011.8
20260506163024 64 184 5.0 11.0 0.01 0.10 0.10 86 1011.5
20260506161520 63 220 4.0 13.0 0.02 0.10 0.10 88 1011.5
20260506160019 62 199 3.0 10.0 0.02 0.10 0.10 89 1012.0
20260506154515 62 221 4.0 11.0 0.04 0.09 0.09 89 1011.9
20260506153012 62 217 4.0 8.0 0.08 0.09 0.09 88 1012.2
20260506151511 61 238 3.0 7.0 0.08 0.08 0.08 89 1013.0
20260506150007 61 245 3.0 6.0 0.08 0.08 0.08 88 1012.9
20260506144504 62 245 2.0 6.0 0.05 0.05 0.05 87 1013.1
20260506143109 62 212 3.0 8.0 0.01 0.01 0.01 84 1013.0
20260506141555 62 218 3.0 8.0 0.00 0.00 0.00 83 1013.1
20260506140051 64 224 5.0 9.0 0.00 0.00 0.00 79 1013.3
20260506134547 65 193 3.0 7.0 0.00 0.00 0.00 76 1013.2
20260506133044 65 210 4.0 8.0 0.00 0.00 0.00 75 1013.1
20260506131542 65 215 4.0 10.0 0.00 0.00 0.00 75 1013.0
20260506130041 65 219 5.0 10.0 0.00 0.00 0.00 75 1012.8
20260506124538 65 198 5.0 12.0 0.00 0.00 0.00 75 1012.8
20260506123037 66 211 2.0 8.0 0.00 0.00 0.00 75 1013.0
20260506121534 66 222 5.0 12.0 0.00 0.00 0.00 74 1013.0
20260506120040 66 225 4.0 8.0 0.00 0.00 0.00 75 1013.0
20260506114532 66 181 4.0 13.0 0.00 0.00 0.00 75 1012.8
20260506113030 66 194 6.0 12.0 0.00 0.00 0.00 75 1012.6
20260506111523 65 207 6.0 11.0 0.00 0.00 0.00 76 1012.5
20260506110022 65 230 4.0 9.0 0.00 0.00 0.00 76 1012.1
20260506104520 65 205 5.0 11.0 0.00 0.00 0.00 76 1012.2
20260506103018 65 217 4.0 8.0 0.00 0.00 0.00 77 1012.2
20260506101515 65 204 4.0 9.0 0.00 0.00 0.00 77 1012.0
20260506100012 65 203 6.0 14.0 0.00 0.00 0.00 76 1012.1
20260506094508 65 203 4.0 11.0 0.00 0.00 0.00 76 1012.2
20260506093005 65 176 5.0 8.0 0.00 0.00 0.00 76 1012.4
20260506091507 66 198 5.0 11.0 0.00 0.00 0.00 75 1012.5
20260506090103 66 200 3.0 11.0 0.00 0.00 0.00 75 1012.4
20260506084614 66 166 4.0 12.0 0.00 0.00 0.00 74 1012.4
20260506083051 67 237 5.0 12.0 0.00 0.00 0.00 74 1012.5
20260506081547 67 194 7.0 11.0 0.00 0.00 0.00 73 1012.3
20260506073038 68 245 4.0 10.0 0.00 0.00 0.00 72 1012.6
20260506071532 68 208 5.0 14.0 0.00 0.00 0.00 71 1012.7